FENGYUN 1C DEB, 41005

Orbit data source: Space-Track

FENGYUN 1C DEB, 41005 is space debris in SSO originally from a launch on Mon, 10 May 1999 UTC launched from the Taiyaun Space Center, China (TSC). Fengyun 1C debris stems from the Chinese weather satellite Fengyun-1C, which was intentionally destroyed by a Chinese anti-satellite missile in 2007. This event dramatically increased the amount of space debris, with thousands of trackable fragments posing hazards to satellites and human spaceflight. The Fengyun 1C debris cloud has become a focal point in discussions about space sustainability and the need for international regulations to prevent the creation of new debris.

Loading next visibility...
Identifier
41005, 1999-025EXK
Orbit
SSO
Country
Flag of CNCN / PRC
Related business
Manufacturer
Unknown
Mission
Spacecraft
Bus & Motor
Unknown
Mass
Unknown
Launch date (UTC)
1999-05-10 (27 years ago)
Launch vehicle
Unknown
Launch site
Taiyaun Space Center, China (TSC)
Object type
Payload
Rocket body
Debris
Shape & HBR
Unknown shape, 0.1 m
Radar Cross Section
Small (<0.1 m²)

Expand to show TLE details & history
Last TLE update: 3 days ago

TLE from 3 days ago
0 FENGYUN 1C DEB
1 41005U 99025EXK 26136.34444835  .00001667  00000-0  93518-3 0  9997
2 41005  98.9435 165.1237 0570286  57.9384 307.5837 13.51324350544686
Epoch: 2026-05-16T08:16Z
TLE epoch observation values (Epoch: 2026-05-16T08:16:00.337Z)
Latitude
-0°
Longitude
167.05954°
Altitude
827.198 km
Speed
7.56 km/s
True Right ascension
11h 00m 29s
True Declination
0° 00' 00"
Sunlit
Object was in daylight at epoch
Visualization orbit readout
Latitude
Unknown
Longitude
Unknown
Altitude
Unknown
Speed
Unknown
Apparent Right ascension
Unknown
Apparent Declination
Unknown
Sunlit
N/A
Visualization observer readout
Local Sidereal Time
09:17:05
Azimuth
Unknown
Elevation
Unknown
Doppler factor
Unknown
Orbital elements
Apogee altitude
1,489.09 km
Perigee altitude
640.188 km
Semi-major axis
7,442.776 km
Eccentricity
0.05703
Inclination
98.9435°
RAAN
165.1237°
Arg. of periapsis
57.9384°
True anomaly
302.17808°
Mean anomaly
307.5837°
Eccentric anomaly
304.90399°
Mean motion
3.38019 °/min
Orbital period
106.5 mins
BSTAR
0.00093518
Loading maneuver chart data...
Computing Atmospheric mass density...
Loading historical data...
Loading historical data...
Loading historical data...
Loading historical data...
Loading historical data...
Loading historical data...
Loading historical data...

Documentation

Showing up to 5 results
|